period_start,C,m1,H,J0,J1,J2,J3,J4,J5,JA,JB,JC,JD,JJ,JK,JN,#
2015-03-04 00:00:37,0.13,3.36,0.00,22.16,27.70,30.67,4.84,27.66,1021.56,2027.99,2273.97,2459.88,2667.63,349.22,349.63,16.44,0000 0000 0000 0000 000000
2015-03-04 00:05:38,0.17,3.36,0.00,22.17,27.70,30.64,4.85,27.63,1021.72,2027.99,2272.74,2458.93,2666.66,350.08,350.49,16.47,0000 0000 0000 0000 000000
2015-03-04 00:10:39,0.15,3.37,0.00,22.18,27.70,30.60,4.85,27.63,1021.84,2027.99,2271.59,2458.04,2665.69,350.00,350.44,16.50,0000 0000 0000 0000 000000
2015-03-04 00:15:40,0.16,3.37,0.00,22.16,27.69,30.57,4.84,27.46,1021.85,2027.99,2270.23,2457.13,2664.70,349.83,350.11,16.53,0000 0000 0000 0000 000000
2015-03-04 00:20:42,0.17,3.38,0.00,22.18,27.67,30.50,4.80,27.58,1021.91,2027.99,2268.86,2456.16,2663.70,350.10,350.76,16.56,0000 0000 0000 0000 000000
2015-03-04 00:25:43,0.17,3.38,0.00,22.13,27.67,30.48,4.84,27.59,1021.76,2027.99,2267.58,2455.23,2662.65,350.02,350.49,16.59,0000 0000 0000 0000 000000
2015-03-04 00:30:44,0.16,3.39,0.00,22.13,27.67,30.43,4.89,27.66,1021.63,2027.99,2266.28,2454.26,2661.65,350.26,350.58,16.62,0000 0000 0000 0000 000000
2015-03-04 00:35:45,0.16,3.39,0.00,22.11,27.65,30.45,4.86,27.71,1021.54,2028.00,2264.93,2453.36,2660.70,349.75,349.96,16.65,0000 0000 0000 0000 000000
2015-03-04 00:40:46,0.18,3.40,0.00,22.12,27.65,30.44,4.86,27.64,1021.54,2028.00,2263.64,2452.48,2659.62,349.74,349.83,16.68,0000 0000 0000 0000 000000
2015-03-04 00:45:47,0.14,3.40,0.00,22.13,27.65,30.37,4.87,27.68,1021.52,2028.00,2262.51,2451.65,2658.72,350.23,350.69,16.70,0000 0000 0000 0000 000000
2015-03-04 00:50:48,0.14,3.41,0.00,22.08,27.64,30.36,4.86,27.57,1021.51,2028.02,2261.33,2450.77,2657.76,349.95,350.39,16.73,0000 0000 0000 0000 000000
2015-03-04 00:55:50,0.14,3.41,0.00,22.12,27.63,30.35,4.91,27.43,1021.50,2028.04,2260.02,2449.88,2656.81,350.70,351.28,16.76,0000 0000 0000 0000 000000
2015-03-04 01:00:51,0.18,3.42,0.00,22.11,27.62,30.39,4.82,27.43,1021.50,2028.03,2258.68,2448.93,2655.78,349.61,350.23,16.79,0000 0000 0000 0000 000000
2015-03-04 01:05:52,0.17,3.42,0.00,22.16,27.62,30.43,4.85,27.75,1021.44,2028.02,2257.36,2447.95,2654.70,349.57,349.90,16.82,0000 0000 0000 0000 000000
2015-03-04 01:10:54,0.17,3.43,0.00,22.13,27.62,30.44,4.90,27.93,1021.33,2028.03,2255.98,2446.94,2653.62,350.47,351.02,16.85,0000 0000 0000 0000 000000
2015-03-04 01:15:55,0.19,3.43,0.00,22.13,27.62,30.45,4.86,27.83,1021.26,2028.04,2254.62,2445.93,2652.55,350.26,350.74,16.88,0000 0000 0000 0000 000000
2015-03-04 01:20:56,0.16,3.44,0.00,22.15,27.62,30.48,4.81,27.96,1021.27,2028.05,2253.36,2444.94,2651.53,349.50,349.65,16.91,0000 0000 0000 0000 000000
2015-03-04 01:25:57,0.16,3.44,0.00,22.16,27.61,30.55,4.78,27.78,1021.06,2028.06,2252.00,2443.98,2650.41,349.69,349.89,16.94,0000 0000 0000 0000 000000
2015-03-04 01:30:59,0.19,3.45,0.00,22.20,27.60,30.59,4.91,27.80,1021.03,2028.12,2250.73,2443.02,2649.39,349.92,350.07,16.97,0000 0000 0000 0000 000000
2015-03-04 01:36:00,0.16,3.45,0.00,22.20,27.60,30.67,4.90,27.98,1021.02,2028.05,2249.35,2442.00,2648.28,350.13,350.31,17.00,0000 0000 0000 0000 000000
2015-03-04 01:41:02,0.19,3.46,0.00,22.22,27.60,30.64,4.83,27.76,1021.02,2028.06,2247.88,2440.93,2647.18,349.37,349.44,17.03,0000 0000 0000 0000 000000
2015-03-04 01:46:03,0.16,3.46,0.00,22.17,27.60,30.62,4.80,27.74,1021.02,2028.09,2246.63,2440.03,2646.08,350.37,350.55,17.06,0000 0000 0000 0000 000000
2015-03-04 01:51:04,0.18,3.47,0.00,22.18,27.60,30.58,4.84,27.55,1021.02,2028.18,2245.34,2439.08,2645.04,350.45,350.59,17.09,0000 0000 0000 0000 000000
2015-03-04 01:56:06,0.18,3.48,0.00,22.16,27.60,30.52,4.86,27.69,1021.01,2028.26,2243.94,2438.09,2643.97,349.80,350.14,17.11,0000 0000 0000 0000 000000
2015-03-04 02:01:07,0.19,3.48,0.00,22.13,27.60,30.45,4.85,27.78,1020.99,2028.23,2242.56,2437.04,2642.87,350.00,350.30,17.14,0000 0000 0000 0000 000000
2015-03-04 02:06:08,0.15,3.48,0.00,22.16,27.60,30.38,4.83,27.70,1020.99,2028.10,2241.09,2435.97,2641.69,350.23,350.24,17.17,0000 0000 0000 0000 000000
2015-03-04 02:11:10,0.22,3.49,0.00,22.15,27.61,30.36,4.84,27.63,1020.89,2028.21,2239.74,2434.94,2640.58,349.70,349.82,17.20,0000 0000 0000 0000 000000
2015-03-04 02:16:11,0.16,3.50,0.00,22.12,27.62,30.26,4.80,27.61,1020.84,2028.29,2238.54,2433.92,2639.49,349.59,349.73,17.23,0000 0000 0000 0000 000000
2015-03-04 02:21:12,0.20,3.50,0.00,22.12,27.62,30.21,4.84,27.67,1020.83,2028.26,2237.15,2432.94,2638.41,349.63,349.83,17.26,0000 0000 0000 0000 000000
2015-03-04 02:26:13,0.16,3.51,0.00,22.10,27.62,30.13,4.85,27.59,1020.81,2028.25,2235.76,2431.94,2637.26,350.36,350.64,17.29,0000 0000 0000 0000 000000
2015-03-04 02:31:14,0.18,3.51,0.00,22.09,27.62,30.01,4.87,27.69,1020.58,2028.18,2234.36,2430.92,2636.11,349.88,349.94,17.32,0000 0000 0000 0000 000000
2015-03-04 02:36:16,0.16,3.52,0.00,22.10,27.62,30.05,4.82,27.63,1020.55,2028.18,2232.90,2429.91,2634.99,349.73,349.82,17.35,0000 0000 0000 0000 000000
2015-03-04 02:41:17,0.22,3.52,0.00,22.15,27.62,30.08,4.79,27.85,1020.53,2028.10,2231.49,2428.77,2633.75,349.82,349.78,17.38,0000 0000 0000 0000 000000
2015-03-04 02:46:18,0.17,3.53,0.00,22.16,27.62,30.09,4.81,27.59,1020.52,2028.19,2230.11,2427.82,2632.70,350.05,350.01,17.41,0000 0000 0000 0000 000000
2015-03-04 02:51:19,0.21,3.53,0.00,22.21,27.62,30.18,4.84,27.67,1020.52,2028.16,2228.64,2426.73,2631.53,349.81,349.95,17.44,0000 0000 0000 0000 000000
2015-03-04 02:56:20,0.18,3.54,0.00,22.14,27.62,30.09,4.81,27.73,1020.52,2028.13,2227.18,2425.64,2630.40,349.54,349.48,17.47,0000 0000 0000 0000 000000
2015-03-04 03:01:22,0.19,3.55,0.00,22.15,27.62,30.05,4.87,27.81,1020.52,2028.17,2225.78,2424.63,2629.26,350.09,349.99,17.50,0000 0000 0000 0000 000000
2015-03-04 03:06:23,0.19,3.55,0.00,22.15,27.62,30.02,4.90,27.86,1020.51,2028.21,2224.41,2423.63,2628.11,350.61,350.63,17.52,0000 0000 0000 0000 000000
2015-03-04 03:11:24,0.20,3.56,0.00,22.15,27.62,30.00,4.86,27.80,1020.52,2028.22,2222.90,2422.53,2626.92,349.95,350.10,17.55,0000 0000 0000 0000 000000
2015-03-04 03:16:25,0.16,3.56,0.00,22.14,27.62,29.97,4.87,27.67,1020.52,2028.08,2221.41,2421.38,2625.70,350.49,350.48,17.58,0000 0000 0000 0000 000000
2015-03-04 03:21:26,0.20,3.57,0.00,22.19,27.62,30.03,4.80,27.73,1020.52,2028.05,2219.87,2420.29,2624.52,349.59,349.72,17.61,0000 0000 0000 0000 000000
2015-03-04 03:26:28,0.21,3.57,0.00,22.19,27.63,30.04,4.83,27.48,1020.52,2028.19,2218.51,2419.29,2623.42,350.30,350.27,17.64,0000 0000 0000 0000 000000
2015-03-04 03:31:29,0.18,3.58,0.00,22.19,27.64,30.06,4.88,27.74,1020.51,2028.20,2217.09,2418.24,2622.46,350.12,350.08,17.67,0000 0000 0000 0000 000000
2015-03-04 03:36:30,0.19,3.58,0.00,22.18,27.65,30.06,4.87,27.74,1020.38,2028.20,2215.63,2417.13,2621.30,349.98,349.87,17.70,0000 0000 0000 0000 000000
2015-03-04 03:41:32,0.18,3.59,0.00,22.24,27.65,30.03,4.83,27.63,1020.07,2028.10,2213.99,2415.98,2620.03,349.75,349.49,17.73,0000 0000 0000 0000 000000
2015-03-04 03:46:33,0.19,3.60,0.00,22.23,27.65,29.98,4.78,27.75,1020.04,2028.09,2212.61,2414.88,2618.82,349.62,349.38,17.76,0000 0000 0000 0000 000000
2015-03-04 03:51:34,0.18,3.60,0.00,22.26,27.65,30.00,4.80,27.67,1020.06,2028.02,2211.23,2413.80,2617.63,349.58,349.32,17.79,0000 0000 0000 0000 000000
2015-03-04 03:56:35,0.20,3.61,0.00,22.29,27.66,30.04,4.87,27.71,1020.18,2028.03,2209.72,2412.73,2616.52,349.75,349.88,17.82,0000 0000 0000 0000 000000
2015-03-04 04:01:36,0.19,3.61,0.00,22.21,27.67,29.95,4.87,27.83,1020.32,2028.03,2208.32,2411.65,2615.32,350.38,350.36,17.85,0000 0000 0000 0000 000000
2015-03-04 04:06:37,0.20,3.62,0.00,22.26,27.67,29.96,4.83,27.73,1020.49,2028.03,2206.81,2410.58,2614.15,350.41,350.29,17.88,0000 0000 0000 0000 000000
2015-03-04 04:11:39,0.17,3.62,0.00,22.29,27.67,29.95,4.82,27.64,1020.52,2028.03,2205.46,2409.54,2612.99,350.31,350.18,17.91,0000 0000 0000 0000 000000
2015-03-04 04:16:40,0.20,3.63,0.00,22.28,27.68,29.90,4.82,27.75,1020.52,2028.01,2204.03,2408.43,2611.78,350.38,350.27,17.93,0000 0000 0000 0000 000000
2015-03-04 04:21:41,0.19,3.63,0.00,22.28,27.70,29.93,4.79,27.87,1020.54,2028.01,2202.62,2407.40,2610.63,349.33,349.39,17.96,0000 0000 0000 0000 000000
2015-03-04 04:26:42,0.17,3.64,0.00,22.33,27.70,30.01,4.82,27.69,1020.53,2028.01,2201.21,2406.33,2609.46,350.42,350.05,17.99,0000 0000 0000 0000 000000
2015-03-04 04:31:43,0.20,3.65,0.00,22.40,27.70,30.10,4.75,27.82,1020.51,2028.00,2199.72,2405.24,2608.29,349.31,349.04,18.02,0000 0000 0000 0000 000000
2015-03-04 04:36:44,0.18,3.65,0.00,22.46,27.70,30.23,4.81,27.96,1020.17,2028.00,2198.31,2404.17,2607.10,350.10,349.65,18.05,0000 0000 0000 0000 000000
2015-03-04 04:41:45,0.23,3.66,0.00,22.47,27.71,30.38,4.72,27.95,1020.05,2028.00,2196.62,2402.98,2605.74,349.46,348.91,18.08,0000 0000 0000 0000 000000
2015-03-04 04:46:47,0.16,3.66,0.00,22.51,27.72,30.53,4.80,27.98,1020.04,2028.00,2195.35,2401.92,2604.68,349.92,349.59,18.11,0000 0000 0000 0000 000000
2015-03-04 04:51:48,0.20,3.67,0.00,22.51,27.72,30.54,4.75,27.77,1020.04,2028.00,2193.87,2400.89,2603.53,349.24,348.85,18.14,0000 0000 0000 0000 000000
2015-03-04 04:56:49,0.18,3.68,0.00,22.50,27.73,30.68,4.83,27.75,1020.04,2028.00,2192.55,2399.90,2602.47,349.15,348.50,18.17,0000 0000 0000 0000 000000
2015-03-04 05:01:50,0.20,3.68,0.00,22.48,27.75,30.61,4.77,27.81,1020.04,2028.00,2191.04,2398.77,2601.37,349.70,349.26,18.20,0000 0000 0000 0000 000000
2015-03-04 05:06:52,0.18,3.69,0.00,22.54,27.75,30.67,4.81,27.73,1020.04,2028.00,2189.65,2397.72,2600.17,350.06,349.34,18.23,0000 0000 0000 0000 000000
2015-03-04 05:11:53,0.20,3.69,0.00,22.53,27.76,30.75,4.86,27.68,1020.04,2028.00,2188.19,2396.59,2598.99,350.58,349.88,18.26,0000 0000 0000 0000 000000
2015-03-04 05:16:54,0.17,3.70,0.00,22.53,27.77,30.78,4.85,27.96,1020.03,2028.00,2186.83,2395.61,2597.85,350.21,349.66,18.29,0000 0000 0000 0000 000000
2015-03-04 05:21:56,0.20,3.70,0.00,22.60,27.77,30.88,4.79,27.85,1019.94,2027.98,2185.42,2394.52,2596.67,349.55,349.04,18.31,0000 0000 0000 0000 000000
2015-03-04 05:26:57,0.18,3.71,0.00,22.58,27.80,30.93,4.78,27.93,1019.69,2027.97,2183.97,2393.46,2595.53,349.40,348.61,18.34,0000 0000 0000 0000 000000
2015-03-04 05:31:59,0.20,3.71,0.00,22.59,27.80,30.93,4.88,27.95,1019.60,2027.97,2182.57,2392.40,2594.40,350.10,349.24,18.37,0000 0000 0000 0000 000000
2015-03-04 05:37:00,0.16,3.72,0.00,22.65,27.81,30.99,4.89,28.09,1019.68,2027.97,2181.35,2391.46,2593.27,350.15,349.41,18.40,0000 0000 0000 0000 000000
2015-03-04 05:42:01,0.18,3.73,0.00,22.64,27.82,31.02,4.80,27.86,1019.76,2027.91,2179.90,2390.33,2592.03,349.78,348.69,18.43,0000 0000 0000 0000 000000
2015-03-04 05:47:03,0.18,3.73,0.00,22.60,27.82,31.08,4.90,27.93,1019.97,2027.92,2178.69,2389.38,2590.94,350.41,349.71,18.46,0000 0000 0000 0000 000000
2015-03-04 05:52:04,0.16,3.74,0.00,22.59,27.84,31.15,4.88,27.90,1019.97,2027.87,2177.38,2388.36,2589.80,349.85,349.17,18.49,0000 0000 0000 0000 000000
2015-03-04 05:57:05,0.11,3.74,0.00,22.60,27.85,31.15,4.90,27.91,1019.98,2027.49,2175.86,2387.28,2588.66,350.81,349.68,18.52,0000 0000 0000 0000 000000
2015-03-04 06:02:06,0.15,3.75,0.00,22.57,27.85,31.14,4.83,27.93,1020.02,2027.25,2174.61,2386.23,2587.50,349.95,349.50,18.55,0000 0000 0000 0000 000000
2015-03-04 06:07:07,0.19,3.75,0.00,22.60,27.87,31.13,4.81,27.77,1019.97,2027.26,2173.34,2385.27,2586.44,349.95,349.25,18.58,0000 0000 0000 0000 000000
2015-03-04 06:12:09,0.19,3.76,0.00,22.59,27.87,31.14,4.87,27.99,1019.75,2027.40,2172.00,2384.35,2585.45,350.05,349.11,18.61,0000 0000 0000 0000 000000
2015-03-04 06:17:10,0.14,3.76,0.00,22.57,27.87,31.11,4.84,27.92,1019.74,2027.21,2170.71,2383.32,2584.32,349.97,349.24,18.64,0000 0000 0000 0000 000000
2015-03-04 06:22:11,0.17,3.77,0.00,22.57,27.90,31.10,4.80,27.67,1019.77,2027.10,2169.31,2382.23,2583.17,349.95,349.15,18.67,0000 0000 0000 0000 000000
2015-03-04 06:27:13,0.16,3.77,0.00,22.56,27.90,31.13,4.90,28.04,1019.72,2027.08,2167.94,2381.19,2582.04,350.26,349.54,18.70,0000 0000 0000 0000 000000
2015-03-04 06:32:14,0.18,3.78,0.00,22.56,27.90,31.18,4.92,28.07,1019.78,2027.03,2166.65,2380.25,2580.93,350.76,349.90,18.73,0000 0000 0000 0000 000000
2015-03-04 06:37:15,0.18,3.78,0.00,22.58,27.90,31.19,4.88,27.93,1019.88,2027.02,2165.28,2379.22,2579.80,350.25,349.43,18.75,0000 0000 0000 0000 000000
2015-03-04 06:42:17,0.20,3.79,0.00,22.56,27.91,31.13,4.81,27.77,1019.97,2027.01,2163.81,2378.13,2578.56,349.93,349.17,18.78,0000 0000 0000 0000 000000
2015-03-04 06:47:18,0.17,3.79,0.00,22.55,27.92,31.14,4.79,27.82,1020.03,2027.02,2162.58,2377.20,2577.62,349.86,349.13,18.81,0000 0000 0000 0000 000000
2015-03-04 06:52:19,0.18,3.80,0.00,22.52,27.92,31.21,4.90,27.64,1020.07,2027.03,2161.37,2376.24,2576.60,350.41,349.97,18.84,0000 0000 0000 0000 000000
2015-03-04 06:57:20,0.18,3.80,0.00,22.56,27.92,31.13,4.84,27.76,1020.39,2027.02,2159.96,2375.24,2575.47,349.52,349.05,18.87,0000 0000 0000 0000 000000
2015-03-04 07:02:21,0.18,3.81,0.00,22.53,27.92,31.12,4.84,27.54,1020.48,2027.00,2158.66,2374.16,2574.34,349.95,349.61,18.90,0000 0000 0000 0000 000000
2015-03-04 07:07:23,0.17,3.82,0.00,22.49,27.92,31.02,4.79,27.55,1020.49,2027.00,2157.40,2373.18,2573.23,350.09,349.71,18.93,0000 0000 0000 0000 000000
2015-03-04 07:12:24,0.19,3.82,0.00,22.45,27.92,30.94,4.88,27.64,1020.52,2027.00,2155.97,2372.19,2572.11,350.13,349.78,18.96,0000 0000 0000 0000 000000
2015-03-04 07:17:25,0.19,3.83,0.00,22.44,27.93,30.80,4.81,27.41,1020.52,2027.00,2154.60,2371.16,2571.00,349.85,349.65,18.99,0000 0000 0000 0000 000000
2015-03-04 07:22:27,0.18,3.83,0.00,22.45,27.94,30.77,4.86,27.53,1020.53,2027.00,2153.33,2370.18,2569.85,350.06,349.53,19.02,0000 0000 0000 0000 000000
2015-03-04 07:27:28,0.18,3.84,0.00,22.40,27.94,30.66,4.84,27.43,1020.54,2027.00,2151.96,2369.15,2568.75,349.98,349.71,19.05,0000 0000 0000 0000 000000
2015-03-04 07:32:29,0.20,3.84,0.00,22.42,27.94,30.63,4.87,27.48,1020.52,2027.00,2150.62,2368.17,2567.63,350.14,349.86,19.08,0000 0000 0000 0000 000000
2015-03-04 07:37:30,0.17,3.85,0.00,22.42,27.94,30.57,4.86,27.49,1020.52,2027.00,2149.36,2367.21,2566.60,349.83,349.57,19.11,0000 0000 0000 0000 000000
2015-03-04 07:42:32,0.19,3.85,0.00,22.46,27.94,30.61,4.89,27.53,1020.50,2026.99,2147.88,2366.26,2565.35,350.59,350.24,19.14,0000 0000 0000 0000 000000
2015-03-04 07:47:33,0.18,3.86,0.00,22.48,27.94,30.68,4.74,27.52,1020.27,2026.99,2146.66,2365.36,2564.41,349.33,348.80,19.16,0000 0000 0000 0000 000000
2015-03-04 07:52:34,0.17,3.86,0.00,22.48,27.94,30.77,4.88,27.69,1020.07,2026.99,2145.33,2364.41,2563.36,349.89,349.62,19.19,0000 0000 0000 0000 000000
2015-03-04 07:57:35,0.19,3.87,0.00,22.49,27.93,30.73,4.89,27.84,1020.05,2026.99,2143.92,2363.36,2562.18,350.10,349.80,19.22,0000 0000 0000 0000 000000
2015-03-04 08:02:37,0.19,3.88,0.00,22.50,27.93,30.79,4.72,27.65,1020.04,2026.99,2142.54,2362.33,2561.09,349.60,348.86,19.25,0000 0000 0000 0000 000000
2015-03-04 08:07:38,0.16,3.88,0.00,22.53,27.92,30.90,4.83,27.73,1020.10,2026.99,2141.31,2361.40,2560.05,349.98,349.55,19.28,0000 0000 0000 0000 000000
2015-03-04 08:12:39,0.17,3.89,0.00,22.52,27.92,30.88,4.85,27.73,1020.43,2026.99,2139.99,2360.44,2559.07,349.56,348.98,19.31,0000 0000 0000 0000 000000
2015-03-04 08:17:40,0.20,3.89,0.00,22.53,27.92,30.91,4.82,27.62,1020.52,2026.99,2138.68,2359.38,2558.12,350.21,349.87,19.34,0000 0000 0000 0000 000000
2015-03-04 08:22:42,0.16,3.90,0.00,22.48,27.92,30.81,4.80,27.67,1020.52,2026.99,2137.45,2358.58,2557.12,349.55,349.13,19.37,0000 0000 0000 0000 000000
2015-03-04 08:27:43,0.17,3.90,0.00,22.42,27.92,30.71,4.87,27.73,1020.52,2026.99,2136.21,2357.58,2556.12,350.05,349.80,19.40,0000 0000 0000 0000 000000
2015-03-04 08:32:44,0.17,3.91,0.00,22.42,27.92,30.60,4.81,27.80,1020.52,2026.99,2134.91,2356.60,2555.06,349.85,349.36,19.43,0000 0000 0000 0000 000000
2015-03-04 08:37:45,0.19,3.91,0.00,22.44,27.92,30.62,4.89,27.87,1020.52,2026.99,2133.59,2355.67,2554.01,350.67,350.43,19.46,0000 0000 0000 0000 000000
2015-03-04 08:42:46,0.19,3.92,0.00,22.47,27.92,30.63,4.83,27.77,1020.53,2026.98,2132.19,2354.57,2552.92,349.83,349.45,19.49,0000 0000 0000 0000 000000
2015-03-04 08:47:47,0.18,3.92,0.00,22.47,27.92,30.62,4.89,27.67,1020.53,2026.98,2130.92,2353.66,2551.86,349.78,349.49,19.52,0000 0000 0000 0000 000000
2015-03-04 08:52:48,0.18,3.93,0.00,22.49,27.92,30.65,4.85,27.52,1020.52,2026.99,2129.64,2352.73,2550.79,350.08,349.70,19.55,0000 0000 0000 0000 000000
2015-03-04 08:57:50,0.19,3.93,0.00,22.46,27.92,30.63,4.86,27.89,1020.51,2026.99,2128.34,2351.71,2549.61,350.38,349.77,19.57,0000 0000 0000 0000 000000
2015-03-04 09:02:51,0.19,3.94,0.00,22.46,27.92,30.67,4.82,27.76,1020.50,2026.98,2126.91,2350.67,2548.48,349.77,349.72,19.60,0000 0000 0000 0000 000000
2015-03-04 09:07:52,0.19,3.94,0.00,22.49,27.92,30.73,4.87,27.63,1020.52,2026.99,2125.61,2349.70,2547.49,349.91,349.54,19.63,0000 0000 0000 0000 000000
2015-03-04 09:12:54,0.18,3.95,0.00,22.43,27.92,30.70,4.90,27.80,1020.52,2026.98,2124.17,2348.66,2546.38,350.54,350.27,19.66,0000 0000 0000 0000 000000
2015-03-04 09:17:55,0.19,3.96,0.00,22.40,27.92,30.68,4.85,27.71,1020.52,2026.97,2122.80,2347.66,2545.33,350.21,350.02,19.69,0000 0000 0000 0000 000000
2015-03-04 09:22:57,0.18,3.96,0.00,22.39,27.92,30.61,4.84,27.78,1020.53,2026.98,2121.47,2346.70,2544.30,349.95,349.75,19.72,0000 0000 0000 0000 000000
2015-03-04 09:27:58,0.19,3.97,0.00,22.39,27.92,30.56,4.86,27.58,1020.53,2026.98,2120.06,2345.64,2543.25,350.25,349.82,19.75,0000 0000 0000 0000 000000
2015-03-04 09:32:59,0.19,3.97,0.00,22.39,27.92,30.53,4.87,27.79,1020.52,2026.99,2118.65,2344.68,2542.14,350.29,350.03,19.78,0000 0000 0000 0000 000000
2015-03-04 09:38:00,0.18,3.98,0.00,22.40,27.92,30.50,4.76,27.56,1020.47,2026.99,2117.31,2343.70,2541.05,349.13,348.74,19.81,0000 0000 0000 0000 000000
2015-03-04 09:43:02,0.21,3.98,0.00,22.47,27.92,30.56,4.77,27.86,1020.24,2026.99,2115.77,2342.54,2539.95,349.90,349.07,19.84,0000 0000 0000 0000 000000
2015-03-04 09:48:03,0.19,3.99,0.00,22.48,27.92,30.66,4.88,27.56,1020.44,2026.99,2114.50,2341.57,2538.79,349.68,349.31,19.87,0000 0000 0000 0000 000000
2015-03-04 09:53:04,0.18,4.00,0.00,22.49,27.92,30.69,4.77,27.45,1020.52,2026.99,2113.07,2340.58,2537.75,349.23,348.86,19.90,0000 0000 0000 0000 000000
2015-03-04 09:58:06,0.22,4.00,0.00,22.47,27.92,30.64,4.85,27.65,1020.53,2026.99,2111.66,2339.53,2536.60,349.84,349.80,19.93,0000 0000 0000 0000 000000
2015-03-04 10:03:07,0.17,4.01,0.00,22.42,27.92,30.51,4.88,27.63,1020.53,2026.99,2110.50,2338.55,2535.56,349.83,349.32,19.96,0000 0000 0000 0000 000000
2015-03-04 10:08:08,0.19,4.01,0.00,22.40,27.92,30.53,4.84,27.78,1020.53,2026.99,2109.10,2337.51,2534.49,350.30,350.03,19.98,0000 0000 0000 0000 000000
2015-03-04 10:13:09,0.19,4.02,0.00,22.49,27.92,30.56,4.81,27.42,1020.52,2026.99,2107.72,2336.55,2533.39,349.74,349.30,20.01,0000 0000 0000 0000 000000
2015-03-04 10:18:11,0.19,4.02,0.00,22.45,27.92,30.55,4.91,27.87,1020.52,2026.99,2106.38,2335.43,2532.29,350.50,350.25,20.04,0000 0000 0000 0000 000000
2015-03-04 10:23:12,0.18,4.03,0.00,22.41,27.92,30.59,4.92,27.64,1020.52,2026.99,2105.04,2334.46,2531.16,350.51,350.33,20.07,0000 0000 0000 0000 000000
2015-03-04 10:28:13,0.21,4.04,0.00,22.39,27.92,30.52,4.88,27.88,1020.53,2026.99,2103.67,2333.36,2529.98,350.36,350.11,20.10,0000 0000 0000 0000 000000
2015-03-04 10:33:14,0.18,4.04,0.00,22.40,27.91,30.49,4.79,27.47,1020.52,2026.99,2102.37,2332.41,2528.89,349.70,349.33,20.13,0000 0000 0000 0000 000000
2015-03-04 10:38:16,0.20,4.05,0.00,22.39,27.91,30.43,4.78,27.48,1020.52,2026.99,2100.95,2331.37,2527.81,349.65,349.40,20.16,0000 0000 0000 0000 000000
2015-03-04 10:43:17,0.21,4.06,0.00,22.46,27.91,30.39,4.86,28.00,1020.52,2026.99,2099.51,2330.20,2526.54,350.06,349.70,20.19,0000 0000 0000 0000 000000
2015-03-04 10:48:19,0.17,4.06,0.00,22.45,27.90,30.40,4.83,27.86,1020.52,2026.99,2098.31,2329.33,2525.57,350.19,349.76,20.22,0000 0000 0000 0000 000000
2015-03-04 10:53:20,0.19,4.07,0.00,22.46,27.90,30.43,4.93,27.75,1020.52,2026.99,2096.98,2328.39,2524.52,350.52,350.18,20.25,0000 0000 0000 0000 000000
2015-03-04 10:58:21,0.20,4.07,0.00,22.44,27.90,30.55,4.80,27.59,1020.52,2026.99,2095.61,2327.40,2523.48,350.35,350.02,20.28,0000 0000 0000 0000 000000
2015-03-04 11:03:23,0.18,4.08,0.00,22.47,27.90,30.55,4.86,27.81,1020.52,2026.99,2094.19,2326.28,2522.31,349.68,349.36,20.31,0000 0000 0000 0000 000000
2015-03-04 11:08:24,0.19,4.08,0.00,22.47,27.90,30.58,4.80,27.73,1020.52,2026.99,2092.83,2325.26,2521.19,350.00,349.61,20.34,0000 0000 0000 0000 000000
2015-03-04 11:13:26,0.19,4.09,0.00,22.54,27.90,30.65,4.78,27.75,1020.52,2026.99,2091.59,2324.24,2520.08,349.70,349.28,20.37,0000 0000 0000 0000 000000
2015-03-04 11:18:27,0.18,4.10,0.00,22.54,27.90,30.71,4.82,27.64,1020.53,2026.99,2090.21,2323.26,2518.98,349.56,349.24,20.40,0000 0000 0000 0000 000000
2015-03-04 11:23:28,0.20,4.10,0.00,22.49,27.90,30.66,4.79,27.74,1020.53,2026.99,2088.83,2322.26,2517.90,349.87,349.41,20.42,0000 0000 0000 0000 000000
2015-03-04 11:28:29,0.20,4.11,0.00,22.45,27.90,30.65,4.86,27.64,1020.54,2026.99,2087.57,2321.30,2516.81,349.89,349.66,20.45,0000 0000 0000 0000 000000
2015-03-04 11:33:30,0.18,4.11,0.00,22.49,27.91,30.63,4.82,27.59,1020.55,2026.99,2086.29,2320.28,2515.76,349.42,349.09,20.48,0000 0000 0000 0000 000000
2015-03-04 11:38:32,0.19,4.12,0.00,22.51,27.91,30.73,4.84,27.73,1020.53,2026.99,2084.96,2319.28,2514.65,349.74,349.26,20.51,0000 0000 0000 0000 000000
2015-03-04 11:43:33,0.20,4.12,0.00,22.52,27.91,30.68,4.82,27.67,1020.55,2026.99,2083.70,2318.23,2513.61,350.42,350.02,20.54,0000 0000 0000 0000 000000
2015-03-04 11:48:34,0.18,4.13,0.00,22.48,27.92,30.60,4.83,27.82,1020.69,2026.99,2082.50,2317.42,2512.59,349.64,349.20,20.57,0000 0000 0000 0000 000000
2015-03-04 11:53:35,0.17,4.13,0.00,22.50,27.92,30.59,4.85,27.55,1020.55,2026.99,2081.36,2316.51,2511.62,350.25,349.97,20.60,0000 0000 0000 0000 000000
2015-03-04 11:58:37,0.17,4.14,0.00,22.51,27.92,30.62,4.87,27.82,1020.53,2026.99,2080.21,2315.59,2510.57,350.75,349.99,20.63,0000 0000 0000 0000 000000
2015-03-04 12:03:38,0.18,4.14,0.00,22.54,27.92,30.70,4.82,27.74,1020.53,2026.99,2078.90,2314.64,2509.54,349.96,349.45,20.66,0000 0000 0000 0000 000000
2015-03-04 12:08:40,0.19,4.15,0.00,22.51,27.92,30.68,4.79,27.63,1020.67,2026.99,2077.66,2313.71,2508.51,349.82,349.62,20.69,0000 0000 0000 0000 000000
2015-03-04 12:13:41,0.16,4.15,0.00,22.51,27.92,30.71,4.88,27.97,1020.73,2026.99,2076.44,2312.79,2507.49,350.01,349.70,20.72,0000 0000 0000 0000 000000
2015-03-04 12:18:42,0.16,4.16,0.00,22.49,27.92,30.71,4.83,27.73,1020.73,2026.99,2075.27,2311.85,2506.47,349.83,349.39,20.75,0000 0000 0000 0000 000000
2015-03-04 12:23:44,0.17,4.17,0.00,22.49,27.92,30.74,4.80,27.66,1020.85,2026.99,2073.98,2310.90,2505.47,349.90,349.66,20.78,0000 0000 0000 0000 000000
2015-03-04 12:28:45,0.19,4.17,0.00,22.48,27.92,30.64,4.86,28.04,1020.79,2026.99,2072.74,2309.95,2504.39,349.85,349.46,20.80,0000 0000 0000 0000 000000
2015-03-04 12:33:47,0.17,4.18,0.00,22.52,27.92,30.67,4.73,27.75,1020.56,2026.99,2071.60,2309.04,2503.39,349.44,348.96,20.83,0000 0000 0000 0000 000000
2015-03-04 12:38:48,0.18,4.18,0.00,22.57,27.92,30.74,4.80,27.78,1020.67,2026.99,2070.34,2308.04,2502.34,349.29,348.82,20.86,0000 0000 0000 0000 000000
2015-03-04 12:43:49,0.17,4.19,0.00,22.54,27.92,30.80,4.81,27.53,1020.99,2026.99,2069.08,2307.08,2501.20,349.12,348.80,20.89,0000 0000 0000 0000 000000
2015-03-04 12:48:51,0.17,4.19,0.00,22.52,27.92,30.76,4.87,27.68,1021.01,2026.98,2068.02,2306.25,2500.31,349.72,349.39,20.92,0000 0000 0000 0000 000000
2015-03-04 12:53:52,0.17,4.20,0.00,22.56,27.92,30.80,4.90,27.77,1021.01,2026.98,2066.87,2305.39,2499.38,349.56,349.38,20.95,0000 0000 0000 0000 000000
2015-03-04 12:58:54,0.18,4.20,0.00,22.58,27.92,30.83,4.83,27.77,1021.01,2026.98,2065.75,2304.50,2498.39,350.42,350.02,20.98,0000 0000 0000 0000 000000